This is the latest recevied weather packets stored in our database for station/object KC5TIL. If no packets are shown the sender has not sent any weather packets the latest 10 day(s).
| Time | Temp. | Humidity | Pressure | Rain* | Wind** | Luminosity | Snow |
|---|---|---|---|---|---|---|---|
| 1788484344 | 30° C | 63% | 1012.3 hPa | 0 mm | - | 0 W/m² | - |
| 1788484038 | 30° C | 62% | 1012.3 hPa | 0 mm | - | 0 W/m² | - |
| 1788483735 | 30° C | 62% | 1012.2 hPa | 0 mm | - | 0 W/m² | - |
| 1788483430 | 30.56° C | 62% | 1012.3 hPa | 0 mm | - | 0 W/m² | - |
| 1788483126 | 30.56° C | 63% | 1012.2 hPa | 0 mm | - | 1 W/m² | - |
| 1788482821 | 30.56° C | 64% | 1012.1 hPa | 0 mm | - | 3 W/m² | - |
| 1788482521 | 30.56° C | 65% | 1012.1 hPa | 0 mm | - | 6 W/m² | - |
| 1788482211 | 30.56° C | 64% | 1012.3 hPa | 0 mm | - | 8 W/m² | - |
| 1788481907 | 30.56° C | 64% | 1012.3 hPa | 0 mm | - | 12 W/m² | - |
| 1788481603 | 31.11° C | 63% | 1012.1 hPa | 0 mm | - | 17 W/m² | - |
| 1788481298 | 31.11° C | 64% | 1012.2 hPa | 0 mm | - | 20 W/m² | - |
| 1788480993 | 31.11° C | 63% | 1012.2 hPa | 0 mm | - | 26 W/m² | - |
| 1788480692 | 31.11° C | 64% | 1012.3 hPa | 0 mm | - | 29 W/m² | - |
| 1788480387 | 31.67° C | 63% | 1012.2 hPa | 0 mm | - | 32 W/m² | - |
| 1788480083 | 31.67° C | 63% | 1012.1 hPa | 0 mm | - | 35 W/m² | - |
| 1788479782 | 31.67° C | 65% | 1012 hPa | 0 mm | - | 39 W/m² | - |
| 1788479479 | 31.67° C | 63% | 1011.9 hPa | 0 mm | - | 42 W/m² | - |
| 1788479173 | 31.67° C | 63% | 1012 hPa | 0 mm | - | 45 W/m² | - |
| 1788478869 | 31.67° C | 63% | 1011.8 hPa | 0 mm | - | 49 W/m² | - |
| 1788478565 | 31.67° C | 63% | 1011.8 hPa | 0 mm | - | 53 W/m² | - |
| 1788478261 | 31.67° C | 64% | 1011.8 hPa | 0 mm | - | 52 W/m² | - |
| 1788477955 | 31.67° C | 66% | 1011.7 hPa | 0 mm | - | 55 W/m² | - |
| 1788477651 | 31.67° C | 63% | 1011.7 hPa | 0 mm | - | 56 W/m² | - |
| 1788477345 | 32.22° C | 64% | 1011.8 hPa | 0 mm | - | 62 W/m² | - |
| 1788477039 | 32.22° C | 63% | 1011.8 hPa | 0 mm | - | 75 W/m² | - |
* Rain latest hour (hover to see other rain measurements)
** Current wind speed in m/s (hover to see current wind gust speed)